Weather Roundup
Issued by NWS Chicago, IL

Home | Current Version | Previous Version | Graphics & Text | Print | Product List | Glossary On
Versions: 1 2 3 4 5 6 7 8 9 10 11 12 13 14 15 16 17 18 19 20 21 22 23 24 25 26 27 28 29 30 31 32 33 34 35 36 37 38 39 40 41 42 43 44 45 46 47 48 49 50
000
NZUS59 KLOT 250908
HRRLOT

CHICAGO AREA WEATHER ROUNDUP
NATIONAL WEATHER SERVICE CHICAGO/ROMEOVILLE IL
300 AM CST SAT FEB 25 2017

NOTE: "FAIR" INDICATES FEW OR NO CLOUDS BELOW 12,000 FEET WITH NO
SIGNIFICANT WEATHER AND/OR OBSTRUCTIONS TO VISIBILITY.

* THESE STATIONS ARE NOT UNDER NWS QUALITY CONTROL. THEY ALSO MAY NOT
  REPORT WEATHER SUCH AS PRECIPITATION OR FOG.

ILZ005-006-012>014-019>023-251000-
NORTHEAST ILLINOIS

CITY           SKY/WX    TMP DP  RH WIND       PRES   REMARKS
OHARE          FLURRIES  30  25  81 W12       29.61R WCI  20
MIDWAY         MOCLDY    31  22  69 W12G22    29.62R WCI  22
AURORA         CLOUDY    29  24  82 W22       29.64S WCI  15
LANSING*       CLOUDY    31  27  84 W16G26    29.63R WCI  20
JOLIET*        CLOUDY    32  27  81 W7        29.65S WCI  25
WAUKEGAN       FLURRIES  27  22  81 NW9       29.60R WCI  18
DUPAGE AIRPORT LGT SNOW  29  24  82 NW18      29.62R WCI  16
WHEELING       CLOUDY    29  24  82 NW12      29.62S WCI  19
KANKAKEE*      CLOUDY    32  28  86 W9G16     29.65R WCI  24
MORRIS*        FLURRIES  30  26  84 NW20G25   29.65S WCI  17
LEWIS AIRPORT* CLOUDY    30  28  92 NW12      29.64S WCI  20
NORTHERLY ISL    N/A     32  25  76 W12         N/A  WCI  23
$$

WIZ051-052-058>065-066-070>072-251000-
SOUTHEAST WISCONSIN

CITY           SKY/WX    TMP DP  RH WIND       PRES   REMARKS
MILWAUKEE      LGT SNOW  25  19  78 NW13      29.60R WCI  14
KENOSHA*       LGT SNOW  26  21  81 NW9       29.60R WCI  17
RACINE*        LGT SNOW  26  21  81 NW8       29.61R WCI  18
WAUKESHA       CLOUDY    21  18  86 NW15      29.61R WCI   8
WEST BEND      LGT SNOW  21  21 100 W5        29.59R WCI  15
$$

INZ001>003-010>013-019-020-251000-
NORTHWEST INDIANA

CITY           SKY/WX    TMP DP  RH WIND       PRES   REMARKS
GARY*          CLOUDY    33  25  71 W13       29.62S WCI  24
MICHIGAN CITY* NOT AVBL
RENSSELAER*    NOT AVBL
VALPARAISO     CLOUDY    33  28  81 W20G29    29.60S WCI  21
$$

LMZ740>746-251000-
SOUTHERN LAKE MICHIGAN

STATION/POSITION TIME  SKY/WX   TEMP WIND        PRES    VSBY
                                AIR  DIR/SP/G
                 (UTC)          (F)  (DEG/KT/KT) (MB)    (MI)
HARRISON CRIB    0840            32  280/ 15/ 18   N/A
BURNHAM HARBOR   0900            31  260/ 12/ 14   N/A
CALUMET HARBOR   0848            31  270/  9/ 15 1002.6R
BURNS HARBOR     0902            33  280/ 21/ 25 1003.0
MICHIGAN CITY    0840            33  240/ 24/ 27   N/A
$$

ABBREVIATIONS USED IN REMARKS
   TC - TEMPERATURE IN CELSIUS
  WCI - WIND CHILL INDEX
   HX - HEAT INDEX
  VSB - VISIBILITY
$$



USA.gov is the U.S. government's official web portal to all federal, state and local government web resources and services.